SR5NLK-1 Weather Reports


time (UTC)temp
C
wind
direction
speed
KPH
gust
KPH
rain 1hr
cm
rain 24hr
cm
rain mn
cm
humidity
%
barometer
mb
20260506082231 31 202 9.7 14.5 0.00 0.00 0.00 27 1023.1
20260506081731 32 180 1.6 8.0 0.00 0.00 0.00 26 1090.9
20260506081231 33 157 3.2 16.1 0.00 0.00 0.00 26 1092.0
20260506080731 34 180 14.5 14.5 0.00 0.00 0.00 26 1048.5
20260506080231 34 247 3.2 9.7 0.00 0.00 0.00 26 1033.0
20260506073231 33 157 8.0 8.0 0.00 0.00 0.00 30 1084.7
20260506072730 33 157 3.2 11.3 0.00 0.00 0.00 29 991.6
20260506072231 33 202 1.6 3.2 0.00 0.00 0.00 30 1016.7
20260506071731 33 202 3.2 4.8 0.00 0.00 0.00 30 1103.3
20260506071237 33 157 0.0 6.4 2.29 0.00 0.00 31 1069.2
20260506071231 33 157 0.0 6.4 0.00 0.00 0.00 31 1069.2
20260506070731 31 225 3.2 6.4 0.00 0.00 0.00 33 1018.9
20260506070231 30 112 1.6 4.8 0.00 0.00 0.00 33 1017.5
20260506062238 28 135 3.2 6.4 0.00 0.00 0.00 39 1304.9
20260506062231 28 135 3.2 6.4 0.00 0.00 0.00 39 1049.8
20260506062130 28 135 4.8 4.8 0.00 0.00 0.00 39 1072.1
20260506061731 28 45 3.2 9.7 0.00 0.00 0.00 39 1094.0
20260506061231 28 112 6.4 9.7 0.00 0.00 0.00 40 1091.9
20260506060738 28 135 4.8 9.7 0.00 0.00 0.00 41 1056.4
20260506060731 28 135 4.8 9.7 0.00 0.00 0.00 41 1056.4
20260506060231 27 112 3.2 6.4 0.00 0.00 0.00 43 1078.4
20260506051231 20 22 4.8 11.3 0.00 0.00 0.00 58 1055.4
20260506050731 19 22 4.8 12.9 0.00 0.00 0.00 60 1081.5
20260506050231 18 45 4.8 11.3 0.00 0.00 0.00 63 1090.9
20260506044731 16 67 4.8 8.0 0.00 0.00 0.00 74 1039.7
20260506044230 14 22 8.0 11.3 0.00 0.00 0.00 77 988.4
20260506043731 12 22 4.8 12.9 0.00 0.00 0.00 75 1042.8
20260506043231 12 67 9.7 12.9 0.00 0.00 0.00 75 1075.2
20260506042731 12 67 12.9 12.9 0.00 0.00 0.00 74 1094.1
20260506042231 12 90 3.2 11.3 0.00 0.00 0.00 74 1045.9
20260506041731 12 67 11.3 11.3 0.00 0.00 0.00 73 1084.6
20260506041231 13 135 3.2 9.7 0.00 0.00 0.00 73 1046.0
20260506040930 13 112 4.8 14.5 0.00 0.00 0.00 72 1042.8
20260506040731 13 67 4.8 14.5 0.00 0.00 0.00 72 1058.5
20260506040231 13 112 6.4 12.9 0.00 0.00 0.00 73 1087.8
20260506035731 13 67 9.7 12.9 0.00 0.00 0.00 76 1036.5
20260506035231 13 45 3.2 9.7 0.00 0.00 0.00 78 1072.1
20260506034731 12 337 6.4 12.9 0.00 0.00 0.00 80 1082.4
20260506034231 12 45 3.2 8.0 0.00 0.00 0.00 80 1049.1
20260506033731 11 67 3.2 12.9 0.00 0.00 0.00 80 995.3
20260506033630 11 90 6.4 12.9 0.00 0.00 0.00 80 927.0
20260506033231 11 45 9.7 9.7 0.00 0.00 0.00 80 1030.3
20260506032731 11 67 4.8 11.3 0.00 0.00 0.00 80 1090.3
20260506032231 11 112 0.0 16.1 0.00 0.00 0.00 79 1043.1
20260506031731 11 67 16.1 16.1 0.00 0.00 0.00 79 1078.4
20260506031231 11 67 4.8 12.9 0.00 0.00 0.00 79 997.9
20260506030731 11 22 12.9 12.9 0.00 0.00 0.00 78 1055.4
20260506030330 11 45 6.4 11.3 0.00 0.00 0.00 78 1089.8
20260506030231 11 67 6.4 11.3 0.00 0.00 0.00 78 1084.6
20260506025731 11 45 4.8 11.3 0.00 0.00 0.00 77 1075.2
20260506025231 11 22 4.8 11.3 0.00 0.00 0.00 77 1087.8
20260506024731 11 45 4.8 9.7 0.00 0.00 0.00 77 1046.0
20260506024231 11 45 4.8 9.7 0.00 0.00 0.00 76 1084.7
20260506023731 11 45 3.2 11.3 0.00 0.00 0.00 76 1081.4
20260506023231 11 90 1.6 11.3 0.00 0.00 0.00 76 1055.2
20260506023030 11 22 6.4 9.7 0.00 0.00 0.00 76 1008.3
20260506022731 11 45 6.4 9.7 0.00 0.00 0.00 76 1055.4
20260506022231 11 45 1.6 8.0 0.00 0.00 0.00 76 988.4
20260506021731 11 90 6.4 9.7 0.00 0.00 0.00 75 1072.1
20260506021231 11 22 4.8 12.9 0.00 0.00 0.00 75 1078.4
20260506020731 11 22 6.4 11.3 0.00 0.00 0.00 75 1026.6
20260506020231 11 45 1.6 11.3 0.00 0.00 0.00 75 1065.8
20260506015730 11 22 0.0 6.4 0.00 0.00 0.00 75 1078.4
20260506015231 11 45 3.2 11.3 0.00 0.00 0.00 75 1081.5
20260506014732 11 45 3.2 11.3 0.00 0.00 0.00 75 1078.3
20260506014231 11 22 6.4 9.7 0.00 0.00 0.00 75 1036.6
20260506013732 11 45 3.2 9.7 0.00 0.00 0.00 75 1087.8
20260506013231 11 22 3.2 8.0 0.00 0.00 0.00 74 1027.1
20260506012731 11 45 3.2 9.7 0.00 0.00 0.00 74 1065.7
20260506012430 11 45 9.7 9.7 0.00 0.00 0.00 74 1010.4
20260506012231 11 90 3.2 8.0 0.00 0.00 0.00 74 1033.4
20260506011731 11 22 4.8 12.9 0.00 0.00 0.00 74 1075.2
20260506011231 11 45 8.0 14.5 0.00 0.00 0.00 74 994.7
20260506010731 11 45 8.0 16.1 0.00 0.00 0.00 74 1046.0
20260506010231 11 22 4.8 8.0 0.00 0.00 0.00 74 1075.2
20260506005731 11 270 4.8 19.3 0.00 0.00 0.00 75 1062.7
20260506005231 11 90 12.9 17.7 0.00 0.00 0.00 75 1039.7
20260506005130 11 67 9.7 9.7 0.00 0.00 0.00 75 1055.4
20260506004731 11 270 3.2 8.0 0.00 0.00 0.00 75 1042.8
20260506004239 11 22 3.2 17.7 0.00 0.00 0.00 75 1027.1
20260506004231 11 22 3.2 17.7 0.00 0.00 0.00 75 1027.1
20260506003731 12 22 8.0 12.9 0.00 0.00 0.00 75 1012.9
20260506003231 12 67 1.6 9.7 0.00 0.00 0.00 75 1060.3
20260506002731 12 0 3.2 9.7 0.00 0.00 0.00 75 1042.1
20260506002231 12 45 0.0 4.8 0.00 0.00 0.00 75 1053.4
20260506001831 12 45 1.6 9.7 0.00 0.00 0.00 75 1080.8
20260506001731 12 22 1.6 9.7 0.00 0.00 0.00 75 1060.9
20260506001231 12 45 4.8 9.7 0.00 0.00 0.00 75 1043.3
20260506000731 12 0 6.4 6.4 0.00 0.00 0.00 75 989.4
20260506000232 12 0 3.2 8.0 0.00 0.00 0.00 75 1049.0
20260505235732 12 22 3.2 8.0 0.00 0.00 0.00 75 1083.2
20260505235231 12 67 8.0 14.5 0.00 0.00 0.00 75 956.0
20260505234731 12 22 6.4 11.3 0.00 0.00 0.00 75 964.8
20260505234531 12 22 8.0 11.3 0.00 0.00 0.00 75 1032.0
20260505234232 12 90 3.2 12.9 0.00 0.00 0.00 75 1078.4
20260505233732 12 45 4.8 9.7 0.00 0.00 0.00 75 1050.2
20260505233232 13 22 3.2 14.5 0.00 0.00 0.00 75 1081.5
20260505232732 13 0 11.3 11.3 0.00 0.00 0.00 75 1078.4
20260505232232 13 0 3.2 12.9 0.00 0.00 0.00 75 1081.6
20260505231732 13 45 4.8 12.9 0.00 0.00 0.00 75 1007.7
20260505231231 13 0 11.3 11.3 0.00 0.00 0.00 75 1104.9
20260505230732 13 0 3.2 14.5 0.00 0.00 0.00 75 1087.8
20260505230232 13 0 14.5 14.5 0.00 0.00 0.00 75 1012.4
20260505225732 13 0 6.4 14.5 0.00 0.00 0.00 74 963.6
20260505225232 14 0 4.8 12.9 0.00 0.00 0.00 74 1081.5
20260505224732 14 22 4.8 8.0 0.00 0.00 0.00 74 946.6
20260505224232 14 45 0.0 16.1 0.00 0.00 0.00 74 1007.0
20260505223931 14 67 8.0 16.1 0.00 0.00 0.00 73 1090.9
20260505223732 14 67 4.8 8.0 0.00 0.00 0.00 73 922.9
20260505223232 14 0 3.2 9.7 0.00 0.00 0.00 73 1002.5
20260505222732 15 67 6.4 12.9 0.00 0.00 0.00 73 1051.9
20260505222232 15 45 0.0 16.1 0.00 0.00 0.00 73 1045.7
20260505221732 15 22 8.0 11.3 0.00 0.00 0.00 73 953.0
20260505221232 15 67 11.3 14.5 0.00 0.00 0.00 72 1055.4
20260505220732 15 22 3.2 8.0 0.00 0.00 0.00 71 989.1
20260505220631 15 0 3.2 11.3 0.00 0.00 0.00 71 937.9
20260505220232 15 67 3.2 11.3 0.00 0.00 0.00 71 885.3
20260505215732 15 337 6.4 9.7 0.00 0.00 0.00 71 1064.1
20260505215232 15 45 4.8 12.9 0.00 0.00 0.00 70 1103.5
20260505214732 15 22 4.8 17.7 0.00 0.00 0.00 70 1078.4
20260505214232 16 22 3.2 14.5 0.00 0.00 0.00 69 1010.4
20260505213732 16 45 4.8 16.1 0.00 0.00 0.00 69 1010.4
20260505213331 16 22 8.0 12.9 0.00 0.00 0.00 68 1097.2
20260505213232 16 22 4.8 16.1 0.00 0.00 0.00 68 1010.4
20260505212732 16 22 9.7 16.1 0.00 0.00 0.00 68 1004.1
20260505212232 16 22 3.2 12.9 0.00 0.00 0.00 67 1016.7
20260505211732 17 0 12.9 17.7 0.00 0.00 0.00 67 974.3
20260505211232 17 45 8.0 17.7 0.00 0.00 0.00 66 1023.5
20260505210732 17 22 17.7 20.9 0.00 0.00 0.00 66 1045.7
20260505210232 17 315 11.3 19.3 0.00 0.00 0.00 64 972.9
20260505210031 17 0 12.9 14.5 0.00 0.00 0.00 64 1002.7
20260505205732 17 67 12.9 17.7 0.00 0.00 0.00 63 1010.4
20260505205232 18 315 6.4 16.1 0.00 0.00 0.00 63 1045.9
20260505204732 18 45 0.0 22.5 0.00 0.00 0.00 63 965.7
20260505204232 18 0 9.7 19.3 0.00 0.00 0.00 62 1007.3
20260505203732 18 45 6.4 22.5 0.00 0.00 0.00 62 1046.0
20260505203232 18 22 11.3 22.5 0.00 0.00 0.00 61 1010.4
20260505202731 18 22 22.5 22.5 0.00 0.00 0.00 62 997.9
20260505202232 18 0 8.0 20.9 0.00 0.00 0.00 61 923.6
20260505201732 18 22 12.9 25.7 0.00 0.00 0.00 61 926.7
20260505201232 19 45 12.9 24.1 0.00 0.00 0.00 59 971.7
20260505200732 19 0 14.5 19.3 0.00 0.00 0.00 58 1046.0
20260505200232 19 22 8.0 19.3 0.00 0.00 0.00 57 930.2
20260505195732 20 22 17.7 24.1 0.00 0.00 0.00 55 1004.1
20260505195431 20 67 12.9 19.3 0.00 0.00 0.00 55 1013.5
20260505195232 20 45 12.9 19.3 0.00 0.00 0.00 54 965.4
20260505194732 20 0 12.9 20.9 0.00 0.00 0.00 52 997.9
20260505194232 20 22 12.9 16.1 0.00 0.00 0.00 50 1039.7
20260505193732 20 22 9.7 14.5 0.00 0.00 0.00 49 997.9
20260505193232 20 22 8.0 14.5 0.00 0.00 0.00 47 920.5
20260505192732 20 0 8.0 16.1 0.00 0.00 0.00 45 1090.9
20260505192232 20 0 9.7 12.9 0.00 0.00 0.00 42 1055.4
20260505192131 20 0 6.4 12.9 0.00 0.00 0.00 41 1055.4
20260505191732 20 22 3.2 14.5 0.00 0.00 0.00 40 1081.5
20260505191232 20 315 6.4 14.5 0.00 0.00 0.00 36 1004.1
20260505190732 21 135 0.0 6.4 0.00 0.00 0.00 34 920.5
20260505190232 21 225 0.0 3.2 0.00 0.00 0.00 34 1045.9
20260505185732 21 337 3.2 11.3 0.00 0.00 0.00 33 1010.4
20260505185232 21 315 4.8 4.8 0.00 0.00 0.00 32 974.7
20260505184831 21 22 0.0 3.2 0.00 0.00 0.00 31 1039.7
20260505184732 21 112 0.0 3.2 0.00 0.00 0.00 31 974.8
20260505184239 21 135 1.6 3.2 0.00 0.00 0.00 31 1097.2
20260505184232 21 135 1.6 3.2 0.00 0.00 0.00 31 1097.2
20260505183732 21 135 0.0 3.2 0.00 0.00 0.00 30 1097.2
20260505183232 22 112 0.0 3.2 0.00 0.00 0.00 30 1100.3
20260505182732 22 135 1.6 3.2 0.00 0.00 0.00 29 1060.2
20260505182232 22 180 1.6 3.2 0.00 0.00 0.00 29 1039.7
20260505181732 22 157 1.6 4.8 0.00 0.00 0.00 29 1019.7
20260505181531 22 135 4.8 4.8 0.00 0.00 0.00 28 1058.5
20260505181232 23 135 1.6 4.8 0.00 0.00 0.00 28 1094.1
20260505180732 23 157 3.2 6.4 0.00 0.00 0.00 28 1042.8
20260505180232 23 112 6.4 8.0 0.00 0.00 0.00 28 1055.3
20260505175732 24 135 4.8 8.0 0.00 0.00 0.00 27 1055.4
20260505175232 24 157 8.0 8.0 0.00 0.00 0.00 27 1100.3
20260505174732 25 157 4.8 8.0 0.00 0.00 0.00 27 1100.3
20260505174231 25 112 1.6 4.8 0.00 0.00 0.00 27 1007.2
20260505173732 25 157 1.6 8.0 0.00 0.00 0.00 26 1004.1
20260505173232 25 157 8.0 11.3 0.00 0.00 0.00 26 1013.5
20260505172732 25 180 1.6 8.0 0.00 0.00 0.00 26 1100.3
20260505172232 25 157 3.2 9.7 0.00 0.00 0.00 26 1013.5
20260505171733 25 180 3.2 8.0 0.00 0.00 0.00 26 1019.7
20260505171232 25 180 4.8 9.7 0.00 0.00 0.00 26 1010.4
20260505170931 25 157 6.4 16.1 0.00 0.00 0.00 26 903.5
20260505170732 25 135 16.1 16.1 0.00 0.00 0.00 26 965.4
20260505170232 26 202 6.4 11.3 0.00 0.00 0.00 26 1058.5
20260505165732 26 180 6.4 12.9 0.00 0.00 0.00 26 1046.0
20260505165232 26 157 6.4 16.1 0.00 0.00 0.00 24 1049.1
20260505164732 26 157 3.2 9.7 0.00 0.00 0.00 24 1042.8
20260505164232 26 135 4.8 12.9 0.00 0.00 0.00 24 1013.5
20260505163733 26 157 6.4 16.1 0.00 0.00 0.00 24 1018.4
20260505163631 26 180 9.7 16.1 0.00 0.00 0.00 24 1055.4
20260505163232 26 157 4.8 19.3 0.00 0.00 0.00 23 1013.4
20260505162732 27 157 14.5 14.5 0.00 0.00 0.00 23 1010.4
20260505162232 27 180 11.3 12.9 0.00 0.00 0.00 23 1049.1
20260505161732 27 180 4.8 19.3 0.00 0.00 0.00 23 1052.2
20260505161232 27 202 8.0 19.3 0.00 0.00 0.00 23 1055.4
20260505160732 27 157 9.7 24.1 0.00 0.00 0.00 22 974.8
20260505160331 27 270 12.9 14.5 0.00 0.00 0.00 22 1084.7
20260505160232 28 202 14.5 19.3 0.00 0.00 0.00 22 1042.8
20260505153232 30 180 3.2 16.1 0.00 0.00 0.00 22 1090.9
20260505153031 30 180 12.9 12.9 0.00 0.00 0.00 22 1089.6
20260505152732 30 157 9.7 12.9 0.00 0.00 0.00 22 1010.4
20260505152232 30 180 4.8 16.1 0.00 0.00 0.00 22 1039.7
20260505151732 30 135 3.2 17.7 0.00 0.00 0.00 22 962.3
20260505151232 30 112 8.0 17.7 0.00 0.00 0.00 22 994.7
20260505150732 30 202 17.7 22.5 0.00 0.00 0.00 22 1045.9
20260505150310 30 225 4.8 12.9 0.00 0.00 0.00 23 1042.8
20260505150232 30 225 4.8 12.9 0.00 0.00 0.00 23 1042.8
20260505140233 30 157 1.6 6.4 0.00 0.00 0.00 24 1045.9
20260505130233 31 180 9.7 12.9 0.00 0.00 0.00 24 1049.1
20260505124733 32 225 6.4 14.5 0.00 0.00 0.00 24 1050.8
20260505124532 32 270 14.5 14.5 0.00 0.00 0.00 24 968.5
20260505124233 32 292 8.0 16.1 0.00 0.00 0.00 24 1013.5
20260505123733 32 202 6.4 19.3 0.00 0.00 0.00 24 1058.5
20260505123233 33 225 11.3 14.5 0.00 0.00 0.00 24 974.7
20260505122819 33 180 4.8 14.5 0.00 0.00 0.00 24 1016.7
20260505122733 33 180 4.8 14.5 0.00 0.00 0.00 24 1016.7
20260505122233 33 225 6.4 12.9 0.00 0.00 0.00 24 1046.0
20260505121733 33 112 12.9 19.3 0.00 0.00 0.00 24 1090.9
20260505121232 33 157 19.3 19.3 0.00 0.00 0.00 25 1021.2
20260505120733 33 135 3.2 11.3 0.00 0.00 0.00 25 929.8
20260505120233 32 247 11.3 22.5 0.00 0.00 0.00 25 1084.6
20260505115733 32 157 14.5 20.9 0.00 0.00 0.00 26 1085.0
20260505115233 32 157 8.0 14.5 0.00 0.00 0.00 26 1016.6
20260505114733 32 202 11.3 19.3 0.00 0.00 0.00 26 1007.3
20260505114233 32 247 9.7 12.9 0.00 0.00 0.00 26 1081.5
20260505113932 32 202 6.4 9.7 0.00 0.00 0.00 26 1067.9
20260505113733 32 270 6.4 9.7 0.00 0.00 0.00 27 1061.6
20260505113233 32 135 3.2 9.7 0.00 0.00 0.00 26 1009.1
20260505112733 33 180 4.8 19.3 0.00 0.00 0.00 27 1100.3
20260505112233 33 202 9.7 12.9 0.00 0.00 0.00 27 1037.1
20260505111733 32 180 11.3 11.3 0.00 0.00 0.00 28 1036.5
20260505111233 32 270 3.2 12.9 0.00 0.00 0.00 28 1045.9
20260505110733 32 202 3.2 11.3 0.00 0.00 0.00 28 971.6
20260505110632 32 202 4.8 12.9 0.00 0.00 0.00 27 1013.5
20260505110233 32 270 6.4 14.5 0.00 0.00 0.00 28 1001.0
20260505101733 31 247 8.0 12.9 0.00 0.00 0.00 29 1058.7
20260505101233 32 45 3.2 8.0 0.00 0.00 0.00 29 1049.1
20260505100733 32 45 4.8 8.0 0.00 0.00 0.00 30 1004.1
20260505100233 32 180 4.8 8.0 0.00 0.00 0.00 30 948.0
20260505100032 32 135 3.2 8.0 0.00 0.00 0.00 31 1067.9
20260505095733 31 202 4.8 11.3 0.00 0.00 0.00 31 1015.2
20260505095233 31 180 6.4 12.9 0.00 0.00 0.00 31 949.7
20260505094733 31 202 8.0 8.0 0.00 0.00 0.00 32 959.1
20260505094233 31 247 0.0 9.7 0.00 0.00 0.00 32 999.2
20260505093733 31 225 3.2 6.4 0.00 0.00 0.00 32 1044.4
20260505093233 31 337 3.2 12.9 0.00 0.00 0.00 31 1014.8
20260505092732 31 247 6.4 9.7 0.00 0.00 0.00 32 1072.1
20260505092233 31 157 4.8 9.7 0.00 0.00 0.00 32 1056.7
20260505091733 31 202 4.8 6.4 0.00 0.00 0.00 31 962.3
20260505091233 31 157 6.4 11.3 0.00 0.00 0.00 31 1087.8
20260505090733 32 157 9.7 9.7 0.00 0.00 0.00 30 1053.4
20260505090233 32 135 3.2 14.5 0.00 0.00 0.00 29 1021.2
20260505085733 32 157 6.4 11.3 0.00 0.00 0.00 30 1094.0
20260505085432 32 157 9.7 11.3 0.00 0.00 0.00 30 1046.1
20260505085233 32 135 4.8 9.7 0.00 0.00 0.00 30 956.0
20260505084733 32 135 6.4 11.3 0.00 0.00 0.00 30 1076.0
20260505084233 32 0 1.6 8.0 0.00 0.00 0.00 30 1090.9
20260505083733 32 135 0.0 11.3 0.00 0.00 0.00 31 1041.9
20260505083233 32 135 3.2 11.3 0.00 0.00 0.00 31 1090.9
20260505082733 32 135 1.6 9.7 0.00 0.00 0.00 31 997.4